This demonstration page uses our WeatherBlox Daily Observations layout. Learn more.

Left ArrowRight Arrow

Hourly Observations for November 5, 2015

Temp ( °F °C ) Dew Point ( °F °C ) Humidity (%) Winds ( mph kmh ) Pressure ( in mb ) Visibility ( mi km ) Precip ( " mm )
12:53 am 00:53 Clear 39 3.9 28 -2.2 65 65 Calm 30.14 1021 10 16 0.00 0.00
1:53 am 01:53 Clear 37 2.8 27 -2.8 67 67 E 3 6 30.15 1021 10 16 0.00 0.00
2:53 am 02:53 Clear 37 2.8 28 -2.2 70 70 Calm 30.15 1021 10 16 0.00 0.00
3:53 am 03:53 Clear 38 3.3 29 -1.7 70 70 Calm 30.16 1021 10 16 0.00 0.00
4:53 am 04:53 Clear 39 3.9 29 -1.7 67 67 undefined N/A 30.18 1022 10 16 0.00 0.00
5:53 am 05:53 Clear 39 3.9 31 -0.6 73 73 Calm 30.19 1022 10 16 0.00 0.00
6:53 am 06:53 Sunny 39 3.9 30 -1.1 70 70 Calm 30.21 1023 10 16 0.00 0.00
7:53 am 07:53 Cloudy 42 5.6 31 -0.6 65 65 Calm 30.23 1024 10 16 0.00 0.00
8:53 am 08:53 Partly Cloudy 47 8.3 32 0 56 56 Calm 30.25 1024 10 16 0.00 0.00
9:53 am 09:53 Mostly Sunny 51 10.6 31 -0.6 46 46 S 3 6 30.26 1025 10 16 0.00 0.00
10:53 am 10:53 Sunny 55 12.8 28 -2.2 35 35 SSE 3 6 30.27 1025 10 16 0.00 0.00
11:53 am 11:53 Sunny 58 14.4 29 -1.7 33 33 VRB 5 7 30.26 1025 10 16 0.00 0.00
12:53 pm 12:53 Sunny 61 16.1 29 -1.7 30 30 SSE 5 7 30.24 1024 10 16 0.00 0.00
1:53 pm 13:53 Sunny 62 16.7 28 -2.2 28 28 VRB 3 6 30.23 1024 10 16 0.00 0.00
2:53 pm 14:53 Sunny 63 17.2 27 -2.8 26 26 SSE 5 7 30.22 1024 10 16 0.00 0.00
3:53 pm 15:53 Sunny 63 17.2 26 -3.3 25 25 SSW 5 7 30.23 1024 10 16 0.00 0.00
4:53 pm 16:53 Sunny 60 15.6 26 -3.3 27 27 SE 3 6 30.23 1024 10 16 0.00 0.00
5:53 pm 17:53 Clear 55 12.8 28 -2.2 35 35 Calm 30.25 1024 10 16 0.00 0.00
6:53 pm 18:53 Clear 50 10 29 -1.7 44 44 Calm 30.26 1025 10 16 0.00 0.00
7:53 pm 19:53 Clear 49 9.4 29 -1.7 46 46 N 5 7 30.28 1025 10 16 0.00 0.00
9:53 pm 21:53 Clear 43 6.1 30 -1.1 60 60 Calm 30.31 1026 10 16 0.00 0.00
10:53 pm 22:53 Clear 44 6.7 30 -1.1 58 58 NNW 3 6 30.31 1026 10 16 0.00 0.00
11:53 pm 23:53 Clear 40 4.4 29 -1.7 65 65 NE 3 6 30.31 1026 10 16 0.00 0.00

Powered by AerisWeather